EW6519 Weather Reports


Display with metric or nautical units.
time (UTC)temp
F
wind
direction
speed
MPH
gust
MPH
rain 1hr
in
rain 24hr
in
rain mn
in
humidity
%
barometer
mb
20260905170007 91 290 0.0 4.0 0.00 0.09 0.07 51 1011.2
20260905164504 90 234 0.0 0.0 0.00 0.09 0.07 52 1011.4
20260905163102 90 211 0.0 5.0 0.00 0.09 0.07 54 1011.5
20260905161504 89 237 0.0 4.0 0.00 0.09 0.07 54 1011.5
20260905160109 87 248 0.0 0.0 0.00 0.09 0.07 56 1011.5
20260905154625 86 127 0.0 0.0 0.00 0.09 0.07 59 1011.6
20260905153051 83 161 1.0 5.0 0.00 0.09 0.07 63 1011.4
20260905151549 83 216 0.0 0.0 0.00 0.09 0.07 63 1011.8
20260905150051 82 260 0.0 5.0 0.00 0.09 0.07 65 1011.6
20260905144543 79 145 0.0 6.0 0.00 0.09 0.07 70 1011.6
20260905143043 78 158 2.0 6.0 0.00 0.09 0.07 73 1011.5
20260905141541 76 205 1.0 8.0 0.00 0.09 0.07 77 1011.8
20260905140038 76 164 0.0 6.0 0.00 0.09 0.07 77 1011.9
20260905134537 75 94 1.0 6.0 0.00 0.09 0.07 79 1012.8
20260905133036 72 147 0.0 4.0 0.00 0.09 0.07 88 1013.5
20260905131539 70 237 0.0 1.0 0.00 0.09 0.07 90 1013.6
20260905130036 70 149 0.0 5.0 0.00 0.09 0.07 91 1013.9
20260905124535 69 89 0.0 0.0 0.00 0.09 0.07 91 1013.4
20260905123039 69 91 0.0 0.0 0.00 0.09 0.07 92 1013.3
20260905121538 69 107 0.0 0.0 0.00 0.09 0.07 92 1013.0
20260905120037 68 107 0.0 0.0 0.03 0.09 0.07 92 1013.0
20260905114531 68 77 0.0 8.0 0.07 0.09 0.07 92 1013.0
20260905113030 68 123 0.0 0.0 0.07 0.09 0.07 92 1013.1
20260905111528 69 143 0.0 6.0 0.07 0.09 0.07 91 1013.2
20260905110024 71 62 3.0 12.0 0.04 0.06 0.04 85 1013.6
20260905104521 73 275 5.0 21.0 0.00 0.02 0.00 79 1013.5
20260905103017 75 280 6.0 22.0 0.00 0.02 0.00 80 1012.8
20260905101513 77 201 0.0 0.0 0.00 0.02 0.00 85 1010.9
20260905100014 76 202 0.0 0.0 0.00 0.02 0.00 87 1011.0
20260905094511 75 201 0.0 0.0 0.00 0.02 0.00 89 1010.9
20260905093009 75 202 0.0 0.0 0.00 0.02 0.00 90 1010.7
20260905091509 75 202 0.0 0.0 0.00 0.02 0.00 90 1010.7
20260905090011 75 201 0.0 0.0 0.00 0.02 0.00 90 1010.6
20260905084507 75 201 0.0 0.0 0.00 0.02 0.00 90 1010.8
20260905083006 75 201 0.0 0.0 0.00 0.02 0.00 87 1010.9
20260905081504 75 202 0.0 0.0 0.00 0.02 0.00 86 1010.7
20260905080003 75 201 0.0 0.0 0.00 0.02 0.00 85 1010.3
20260905074501 76 202 0.0 0.0 0.00 0.02 0.00 84 1010.2
20260905073110 76 201 0.0 0.0 0.00 0.02 0.00 84 1010.3
20260905071601 76 202 0.0 0.0 0.00 0.02 0.00 83 1010.1
20260905070058 76 201 0.0 0.0 0.00 0.02 0.00 82 1010.2
20260905064554 77 201 0.0 0.0 0.00 0.02 0.00 81 1010.4
20260905063051 77 201 0.0 0.0 0.00 0.02 0.00 81 1010.7
20260905061601 77 202 0.0 0.0 0.00 0.02 0.00 82 1010.9
20260905054556 77 215 0.0 0.0 0.00 0.02 0.00 84 1011.2
20260905053044 77 228 0.0 0.0 0.00 0.02 0.00 85 1011.3
20260905051557 77 176 0.0 0.0 0.00 0.02 0.00 86 1011.6
20260905050041 77 176 0.0 0.0 0.00 0.02 0.00 85 1011.8
20260905044543 77 176 0.0 0.0 0.00 0.02 0.00 85 1011.7
20260905043040 78 191 0.0 0.0 0.00 0.02 0.00 83 1011.7
20260905041539 78 191 0.0 0.0 0.00 0.02 0.00 83 1011.7
20260905040034 78 191 0.0 0.0 0.00 0.02 0.00 82 1011.7
20260905034535 78 191 0.0 0.0 0.00 0.02 0.02 81 1011.7
20260905033032 78 191 0.0 0.0 0.00 0.02 0.02 81 1011.7
20260905031539 78 191 0.0 0.0 0.00 0.02 0.02 81 1011.5
20260905030032 78 163 0.0 0.0 0.00 0.02 0.02 82 1011.5
20260905024553 78 163 0.0 0.0 0.00 0.02 0.02 82 1011.7
20260905023030 79 163 0.0 0.0 0.00 0.02 0.02 82 1011.6
20260905021531 79 165 0.0 0.0 0.00 0.02 0.02 82 1011.5
20260905020033 79 134 0.0 0.0 0.00 0.02 0.02 81 1011.5
20260905014527 79 94 0.0 0.0 0.00 0.02 0.02 82 1011.4
20260905013027 79 94 0.0 0.0 0.00 0.02 0.02 82 1011.3
20260905011526 79 94 0.0 0.0 0.00 0.02 0.02 82 1011.1
20260905010025 79 94 0.0 0.0 0.00 0.02 0.02 82 1011.1
20260905004528 79 94 0.0 0.0 0.00 0.02 0.02 83 1011.1
20260905003025 79 76 0.0 0.0 0.00 0.02 0.02 82 1011.1
20260905001524 79 76 0.0 0.0 0.00 0.02 0.02 82 1011.1
20260905000027 79 76 0.0 0.0 0.00 0.02 0.02 82 1011.1
20260904234529 79 76 0.0 0.0 0.00 0.02 0.02 82 1010.9
20260904233022 79 65 0.0 6.0 0.00 0.02 0.02 83 1010.9
20260904231521 80 351 0.0 0.0 0.00 0.02 0.02 85 1010.7
20260904230021 80 118 0.0 0.0 0.01 0.02 0.02 82 1010.7
20260904224520 80 79 0.0 0.0 0.02 0.02 0.02 80 1010.6
20260904223020 81 126 0.0 0.0 0.02 0.02 0.02 81 1010.4
20260904221518 79 231 0.0 0.0 0.02 0.02 0.02 85 1010.7
20260904220017 79 314 0.0 6.0 0.01 0.01 0.01 84 1011.4
20260904214516 82 267 7.0 17.0 0.00 0.00 0.00 73 1013.3
20260904213015 88 322 6.0 12.0 0.00 0.00 0.00 55 1013.6
20260904211514 94 4 3.0 16.0 0.00 0.00 0.00 48 1011.8
20260904210015 99 164 2.0 7.0 0.00 0.00 0.00 44 1010.9
20260904204510 99 274 0.0 4.0 0.00 0.00 0.00 47 1011.3
20260904203010 98 268 0.0 2.0 0.00 0.00 0.00 47 1011.2
20260904201507 97 255 0.0 6.0 0.00 0.00 0.00 47 1011.5
20260904200020 100 30 0.0 5.0 0.00 0.00 0.00 45 1011.5
20260904194504 99 293 0.0 15.0 0.00 0.00 0.00 45 1011.6
20260904193006 98 248 2.0 9.0 0.00 0.00 0.00 46 1011.7
20260904191502 98 165 0.0 9.0 0.00 0.00 0.00 47 1011.7
20260904190100 99 272 0.0 10.0 0.00 0.00 0.00 47 1011.9
20260904184600 99 238 1.0 9.0 0.00 0.00 0.00 47 1012.1
20260904183057 99 344 3.0 8.0 0.00 0.00 0.00 45 1012.3
20260904181554 99 224 2.0 11.0 0.00 0.00 0.00 46 1012.5
20260904180054 98 237 0.0 5.0 0.00 0.00 0.00 46 1012.8
20260904174552 98 240 1.0 8.0 0.00 0.00 0.00 48 1013.1
20260904173047 97 270 1.0 6.0 0.00 0.00 0.00 48 1013.3
20260904171613 96 235 0.0 7.0 0.00 0.00 0.00 50 1013.4